• Join FlightAware (Why Join?)
  • Login
  • US Flag 
12:31PM EDT


 

Airport Tracker/Info


-or-


 

Live Flight TrackerFlight Track Log ✈ FLG3651 ✈ 20-Apr-2013 ✈ KBNA - KDTW

Flight Track Log - Related Links

Times and Time Zones

All times are in EDT time to prevent confusion due to time zone crossing. See the FLG3651 flight status page for this flight to view local times or setup timezone preferences in your user account.

Time Position Orientation Groundspeed Altitude Reporting Facility
EDT Latitude Longitude Course Direction KTS MPH feet Rate Location/Type
05:35PM 36.1833 -86.6667 North 173 199 2,700  Level Nashville TRACON
05:36PM 36.2333 -86.6500 15° North 217 250 5,100 2,460 Climbing Nashville TRACON
05:37PM 36.4128 -86.7072 356° North  Level FlightAware Approximate
05:37PM 36.3000 -86.6667 349° North 271 312 7,400  Level Nashville TRACON
05:38PM 36.5122 -86.7163 356° North  Level FlightAware Approximate
05:38PM 36.3772 -86.6864 348° North 285 328 10,700  Level Memphis Center
05:39PM 36.6104 -86.7333 North  Level FlightAware Approximate
05:39PM 36.4611 -86.7033 351° North 285 328 12,700  Level Memphis Center
05:40PM 36.7100 -86.7333 North  Level FlightAware Approximate
05:40PM 36.5492 -86.7228 350° North 304 350 14,700  Level Memphis Center
05:41PM 36.6456 -86.7364 354° North 325 374 16,400 1,620 Climbing Memphis Center
05:42PM 36.7478 -86.7422 357° North 351 404 18,000 1,260 Climbing Memphis Center
05:43PM 36.8439 -86.7481 357° North 370 426 19,000 1,200 Climbing Memphis Center
05:44PM 36.9525 -86.7561 357° North 385 443 20,500 1,140 Climbing Memphis Center
05:45PM 37.1333 -86.7694 357° North 399 459 22,100 960 Climbing Indianapolis Center
05:47PM 37.2486 -86.7783 356° North 411 473 23,200 1,020 Climbing Indianapolis Center
05:48PM 37.3817 -86.7969 354° North 410 472 24,300 1,020 Climbing Indianapolis Center
05:49PM 37.4972 -86.8075 356° North 417 480 25,400 960 Climbing Indianapolis Center
05:50PM 37.6122 -86.7864 North 426 490 26,300 660 Climbing Indianapolis Center
05:51PM 37.7314 -86.7650 North 430 495 26,800 300 Climbing Indianapolis Center
05:52PM 37.8544 -86.7411 North 443 510 27,000 180 Climbing Indianapolis Center
05:53PM 37.9806 -86.7181 North 455 524 27,200 180 Climbing Indianapolis Center
05:54PM 38.1081 -86.6947 North 463 533 27,400 240 Climbing Indianapolis Center
05:55PM 38.2350 -86.6700 North 465 535 27,800 240 Climbing Indianapolis Center
05:56PM 38.3878 -86.6419 North 466 536 28,000 60 Climbing Indianapolis Center
05:57PM 38.5172 -86.6181 North 470 541 28,000  Level Indianapolis Center
05:58PM 38.6444 -86.6078 North 458 527 28,000  Level Indianapolis Center
05:59PM 38.7697 -86.6153 357° North 452 520 28,000  Level Indianapolis Center
06:00PM 38.8958 -86.6192 359° North 452 520 28,000  Level Indianapolis Center
06:01PM 39.0203 -86.6258 358° North 447 514 28,000  Level Indianapolis Center
06:02PM 39.1461 -86.6314 358° North 450 518 28,000  Level Indianapolis Center
06:03PM 39.2708 -86.6367 358° North 449 517 28,000  Level Indianapolis Center
06:04PM 39.4172 -86.6442 358° North 435 501 28,000  Level Indianapolis Center
06:05PM 39.5361 -86.6458 359° North 427 491 28,000  Level Indianapolis Center
06:06PM 39.6406 -86.5419 37° Northeast 463 533 28,000  Level Indianapolis Center
06:07PM 39.7428 -86.4411 37° Northeast 459 528 28,000  Level Indianapolis Center
06:08PM 39.8475 -86.3467 35° Northeast 458 527 28,000  Level Indianapolis Center
06:09PM 39.9589 -86.2944 20° North 441 507 28,000  Level Chicago Center
06:10PM 40.0744 -86.2519 16° North 441 507 28,000  Level Chicago Center
06:11PM 40.1872 -86.2450 North 407 468 28,000 -180 Level Chicago Center
06:12PM 40.2969 -86.2392 North 394 453 27,700 -540 Descending Chicago Center
06:13PM 40.3989 -86.2367 North 369 425 26,900 -1,020 Descending Chicago Center
06:14PM 40.5156 -86.2306 North 349 402 25,700 -1,080 Descending Chicago Center
06:15PM 40.6081 -86.1750 25° Northeast 383 441 24,700 -1,020 Descending Chicago Center
06:16PM 40.6725 -86.0369 58° Northeast 443 510 23,700 -840 Descending Chicago Center
06:17PM 40.7547 -85.9100 49° Northeast 460 529 23,000 -360 Descending Chicago Center
06:18PM 40.8353 -85.7831 50° Northeast 456 525 23,000  Level Chicago Center
06:19PM 40.9164 -85.6564 50° Northeast 454 522 23,000 -420 Level Chicago Center
06:20PM 40.9981 -85.5258 50° Northeast 461 531 22,200 -960 Descending Chicago Center
06:21PM 41.0953 -85.3722 50° Northeast 459 528 21,100 -600 Descending Chicago Center
06:22PM 41.1747 -85.2453 50° Northeast 454 522 21,000 -60 Descending Chicago Center
06:23PM 41.2550 -85.1167 50° Northeast 455 524 21,000  Level Chicago Center
06:24PM 41.3342 -84.9875 51° Northeast 457 526 21,000  Level Chicago Center
06:25PM 41.4128 -84.8625 50° Northeast 449 517 21,000 -300 Level Chicago Center
06:26PM 41.4897 -84.7344 51° Northeast 449 517 20,500 -780 Descending Chicago Center
06:27PM 41.5592 -84.6239 50° Northeast 450 518 19,600 -1,380 Descending Cleveland Center
06:28PM 41.6367 -84.4981 50° Northeast 450 518 18,100 -1,560 Descending Cleveland Center
06:29PM 41.7036 -84.3686 55° Northeast 438 504 16,500 -1,860 Descending Cleveland Center
06:30PM 41.7447 -84.2542 64° Northeast 411 473 14,900 -2,100 Descending Cleveland Center
06:31PM 41.7814 -84.1533 64° Northeast 396 456 13,400 -1,980 Descending Cleveland Center
06:31PM 41.7997 -84.1014 65° Northeast 399 459 12,500 -1,320 Descending Cleveland Center
06:32PM 41.8331 -84.0278 59° Northeast 382 440 12,100 -540 Descending Cleveland Center
06:32PM 41.8572 -83.9847 53° Northeast 387 445 12,000  Descending Cleveland Center
06:33PM 41.8969 -83.9197 51° Northeast 371 427 12,100  Climbing Cleveland Center
06:33PM 41.9269 -83.8822 43° Northeast 374 430 12,000  Descending Cleveland Center
06:34PM 41.9744 -83.8261 41° Northeast 370 426 12,100 -120 Climbing Cleveland Center
06:34PM 42.0028 -83.7856 47° Northeast 369 425 11,900 -360 Descending Cleveland Center
06:35PM 42.0742 -83.6911 44° Northeast 369 425 11,600 -540 Descending Cleveland Center
06:36PM 42.1239 -83.6292 43° Northeast 358 412 11,100 -600 Descending Cleveland Center
06:36PM 42.1433 -83.6022 46° Northeast 359 413 11,000  Descending Cleveland Center
06:37PM 42.2031 -83.5517 32° Northeast 232 267 11,100 -300 Climbing Cleveland Center
06:38PM 42.2411 -83.5225 30° Northeast 204 235 10,600 -1,260 Descending Cleveland Center
06:38PM 42.2625 -83.5067 29° Northeast 225 259 9,700 -1,980 Descending Cleveland Center
06:39PM 42.3050 -83.4778 27° Northeast 206 237 8,200 -1,920 Descending Cleveland Center
06:40PM 42.3536 -83.4464 26° Northeast 197 227 6,300 -2,100 Descending Cleveland Center
06:41PM 42.3986 -83.4033 35° Northeast 204 235 4,000 -1,680 Descending Cleveland Center
06:42PM 42.3836 -83.3353 107° East 207 238 3,100 -480 Descending Cleveland Center
06:43PM 42.3319 -83.3106 161° South 205 236 3,100  Level Cleveland Center